owner,sensor,date,latitude,longitude,air_temperature,qcFlag 
DISL,ioos:station:DISL:MHPA:1,2016-10-01T00:00:00Z,30.6671,-87.9365,24.04,1111122 
DISL,ioos:station:DISL:MHPA:1,2016-10-01T00:30:00Z,30.6671,-87.9365,23.11,1111122 
DISL,ioos:station:DISL:MHPA:1,2016-10-01T01:00:00Z,30.6671,-87.9365,22.75,1111122 
DISL,ioos:station:DISL:MHPA:1,2016-10-01T01:30:00Z,30.6671,-87.9365,22.12,1111122 
DISL,ioos:station:DISL:MHPA:1,2016-10-01T02:00:00Z,30.6671,-87.9365,22.02,1111122 
DISL,ioos:station:DISL:MHPA:1,2016-10-01T02:30:00Z,30.6671,-87.9365,21.85,1111122 
DISL,ioos:station:DISL:MHPA:1,2016-10-01T03:00:00Z,30.6671,-87.9365,21.44,1111122 
DISL,ioos:station:DISL:MHPA:1,2016-10-01T03:30:00Z,30.6671,-87.9365,21.41,1111122 
DISL,ioos:station:DISL:MHPA:1,2016-10-01T04:00:00Z,30.6671,-87.9365,21.51,1111122 
DISL,ioos:station:DISL:MHPA:1,2016-10-01T04:30:00Z,30.6671,-87.9365,21.48,1111122 
DISL,ioos:station:DISL:MHPA:1,2016-10-01T05:00:00Z,30.6671,-87.9365,21.14,1111122 
DISL,ioos:station:DISL:MHPA:1,2016-10-01T05:30:00Z,30.6671,-87.9365,20.84,1111122 
DISL,ioos:station:DISL:MHPA:1,2016-10-01T06:00:00Z,30.6671,-87.9365,20.33,1111122 
DISL,ioos:station:DISL:MHPA:1,2016-10-01T06:30:00Z,30.6671,-87.9365,20.09,1111122 
DISL,ioos:station:DISL:MHPA:1,2016-10-01T07:00:00Z,30.6671,-87.9365,20.03,1111122 
DISL,ioos:station:DISL:MHPA:1,2016-10-01T07:30:00Z,30.6671,-87.9365,19.84,1111122 
DISL,ioos:station:DISL:MHPA:1,2016-10-01T08:00:00Z,30.6671,-87.9365,19.77,1111122 
DISL,ioos:station:DISL:MHPA:1,2016-10-01T08:30:00Z,30.6671,-87.9365,19.37,1111122 
DISL,ioos:station:DISL:MHPA:1,2016-10-01T09:00:00Z,30.6671,-87.9365,19.3,1111122 
DISL,ioos:station:DISL:MHPA:1,2016-10-01T09:30:00Z,30.6671,-87.9365,19.44,1111122 
DISL,ioos:station:DISL:MHPA:1,2016-10-01T10:00:00Z,30.6671,-87.9365,18.66,1111122 
DISL,ioos:station:DISL:MHPA:1,2016-10-01T10:30:00Z,30.6671,-87.9365,17.89,1111122 
DISL,ioos:station:DISL:MHPA:1,2016-10-01T11:00:00Z,30.6671,-87.9365,17.24,1111122 
DISL,ioos:station:DISL:MHPA:1,2016-10-01T11:30:00Z,30.6671,-87.9365,17.19,1111122 
DISL,ioos:station:DISL:MHPA:1,2016-10-01T12:00:00Z,30.6671,-87.9365,16.95,1111122 
DISL,ioos:station:DISL:MHPA:1,2016-10-01T12:30:00Z,30.6671,-87.9365,17.25,1111122 
DISL,ioos:station:DISL:MHPA:1,2016-10-01T13:00:00Z,30.6671,-87.9365,17.79,1111122 
DISL,ioos:station:DISL:MHPA:1,2016-10-01T13:30:00Z,30.6671,-87.9365,19.09,1111122 
DISL,ioos:station:DISL:MHPA:1,2016-10-01T14:00:00Z,30.6671,-87.9365,20.7,1111122 
DISL,ioos:station:DISL:MHPA:1,2016-10-01T14:30:00Z,30.6671,-87.9365,22.62,1111122 
DISL,ioos:station:DISL:MHPA:1,2016-10-01T15:00:00Z,30.6671,-87.9365,23.85,1111122 
DISL,ioos:station:DISL:MHPA:1,2016-10-01T15:30:00Z,30.6671,-87.9365,24.37,1111122 
DISL,ioos:station:DISL:MHPA:1,2016-10-01T16:00:00Z,30.6671,-87.9365,24.64,1111122 
DISL,ioos:station:DISL:MHPA:1,2016-10-01T16:30:00Z,30.6671,-87.9365,25.08,1111122 
DISL,ioos:station:DISL:MHPA:1,2016-10-01T17:00:00Z,30.6671,-87.9365,24.87,1111122 
DISL,ioos:station:DISL:MHPA:1,2016-10-01T17:30:00Z,30.6671,-87.9365,25.4,1111122 
DISL,ioos:station:DISL:MHPA:1,2016-10-01T18:00:00Z,30.6671,-87.9365,25.19,1111122 
DISL,ioos:station:DISL:MHPA:1,2016-10-01T18:30:00Z,30.6671,-87.9365,25.81,1111122 
DISL,ioos:station:DISL:MHPA:1,2016-10-01T19:00:00Z,30.6671,-87.9365,26.56,1111122 
DISL,ioos:station:DISL:MHPA:1,2016-10-01T19:30:00Z,30.6671,-87.9365,26.43,1111122 
DISL,ioos:station:DISL:MHPA:1,2016-10-01T20:00:00Z,30.6671,-87.9365,26.78,1111122 
DISL,ioos:station:DISL:MHPA:1,2016-10-01T20:30:00Z,30.6671,-87.9365,26.44,1111122 
DISL,ioos:station:DISL:MHPA:1,2016-10-01T21:00:00Z,30.6671,-87.9365,27.42,1111122 
DISL,ioos:station:DISL:MHPA:1,2016-10-01T21:30:00Z,30.6671,-87.9365,27.23,1111122 
DISL,ioos:station:DISL:MHPA:1,2016-10-01T22:00:00Z,30.6671,-87.9365,27.45,1111122 
DISL,ioos:station:DISL:MHPA:1,2016-10-01T22:30:00Z,30.6671,-87.9365,26.98,1111122 
DISL,ioos:station:DISL:MHPA:1,2016-10-01T23:00:00Z,30.6671,-87.9365,26.11,1111122 
DISL,ioos:station:DISL:MHPA:1,2016-10-01T23:30:00Z,30.6671,-87.9365,25.72,1111122 
DISL,ioos:station:DISL:MHPA:1,2016-10-02T00:00:00Z,30.6671,-87.9365,24.98,1111122 
DISL,ioos:station:DISL:MHPA:1,2016-10-02T00:30:00Z,30.6671,-87.9365,24.93,1111122 
DISL,ioos:station:DISL:MHPA:1,2016-10-02T01:00:00Z,30.6671,-87.9365,24.39,1111122 
DISL,ioos:station:DISL:MHPA:1,2016-10-02T01:30:00Z,30.6671,-87.9365,23.76,1111122 
DISL,ioos:station:DISL:MHPA:1,2016-10-02T02:00:00Z,30.6671,-87.9365,23.39,1111122 
DISL,ioos:station:DISL:MHPA:1,2016-10-02T02:30:00Z,30.6671,-87.9365,22.44,1111122 
DISL,ioos:station:DISL:MHPA:1,2016-10-02T03:00:00Z,30.6671,-87.9365,22.32,1111122 
DISL,ioos:station:DISL:MHPA:1,2016-10-02T03:30:00Z,30.6671,-87.9365,21.72,1111122 
DISL,ioos:station:DISL:MHPA:1,2016-10-02T04:00:00Z,30.6671,-87.9365,21.78,1111122 
DISL,ioos:station:DISL:MHPA:1,2016-10-02T04:30:00Z,30.6671,-87.9365,21.14,1111122 
DISL,ioos:station:DISL:MHPA:1,2016-10-02T05:00:00Z,30.6671,-87.9365,20.97,1111122 
DISL,ioos:station:DISL:MHPA:1,2016-10-02T05:30:00Z,30.6671,-87.9365,20.91,1111122 
DISL,ioos:station:DISL:MHPA:1,2016-10-02T06:00:00Z,30.6671,-87.9365,20.6,1111122 
DISL,ioos:station:DISL:MHPA:1,2016-10-02T06:30:00Z,30.6671,-87.9365,20.4,1111122 
DISL,ioos:station:DISL:MHPA:1,2016-10-02T07:00:00Z,30.6671,-87.9365,20.37,1111122 
DISL,ioos:station:DISL:MHPA:1,2016-10-02T07:30:00Z,30.6671,-87.9365,20.2,1111122 
DISL,ioos:station:DISL:MHPA:1,2016-10-02T08:00:00Z,30.6671,-87.9365,19.97,1111122 
DISL,ioos:station:DISL:MHPA:1,2016-10-02T08:30:00Z,30.6671,-87.9365,19.84,1111122 
DISL,ioos:station:DISL:MHPA:1,2016-10-02T09:00:00Z,30.6671,-87.9365,19.57,1111122 
DISL,ioos:station:DISL:MHPA:1,2016-10-02T09:30:00Z,30.6671,-87.9365,19.64,1111122 
DISL,ioos:station:DISL:MHPA:1,2016-10-02T10:00:00Z,30.6671,-87.9365,19.53,1111122 
DISL,ioos:station:DISL:MHPA:1,2016-10-02T10:30:00Z,30.6671,-87.9365,19.46,1111122 
DISL,ioos:station:DISL:MHPA:1,2016-10-02T11:00:00Z,30.6671,-87.9365,19.36,1111122 
DISL,ioos:station:DISL:MHPA:1,2016-10-02T11:30:00Z,30.6671,-87.9365,19.12,1111122 
DISL,ioos:station:DISL:MHPA:1,2016-10-02T12:00:00Z,30.6671,-87.9365,19.43,1111122 
DISL,ioos:station:DISL:MHPA:1,2016-10-02T12:30:00Z,30.6671,-87.9365,19.67,1111122 
DISL,ioos:station:DISL:MHPA:1,2016-10-02T13:00:00Z,30.6671,-87.9365,19.86,1111122 
DISL,ioos:station:DISL:MHPA:1,2016-10-02T13:30:00Z,30.6671,-87.9365,20.2,1111122 
DISL,ioos:station:DISL:MHPA:1,2016-10-02T14:00:00Z,30.6671,-87.9365,20.6,1111122 
DISL,ioos:station:DISL:MHPA:1,2016-10-02T14:30:00Z,30.6671,-87.9365,20.94,1111122 
DISL,ioos:station:DISL:MHPA:1,2016-10-02T15:00:00Z,30.6671,-87.9365,21.61,1111122 
DISL,ioos:station:DISL:MHPA:1,2016-10-02T15:30:00Z,30.6671,-87.9365,22.41,1111122 
DISL,ioos:station:DISL:MHPA:1,2016-10-02T16:00:00Z,30.6671,-87.9365,24.46,1111122 
DISL,ioos:station:DISL:MHPA:1,2016-10-02T16:30:00Z,30.6671,-87.9365,25.22,1111122 
DISL,ioos:station:DISL:MHPA:1,2016-10-02T17:00:00Z,30.6671,-87.9365,25.98,1111122 
DISL,ioos:station:DISL:MHPA:1,2016-10-02T17:30:00Z,30.6671,-87.9365,26.31,1111122 
DISL,ioos:station:DISL:MHPA:1,2016-10-02T18:00:00Z,30.6671,-87.9365,26.17,1111122 
DISL,ioos:station:DISL:MHPA:1,2016-10-02T18:30:00Z,30.6671,-87.9365,26.45,1111122 
DISL,ioos:station:DISL:MHPA:1,2016-10-02T19:00:00Z,30.6671,-87.9365,26.6,1111122 
DISL,ioos:station:DISL:MHPA:1,2016-10-02T19:30:00Z,30.6671,-87.9365,27.17,1111122 
DISL,ioos:station:DISL:MHPA:1,2016-10-02T20:00:00Z,30.6671,-87.9365,27.26,1111122 
DISL,ioos:station:DISL:MHPA:1,2016-10-02T20:30:00Z,30.6671,-87.9365,27.29,1111122 
DISL,ioos:station:DISL:MHPA:1,2016-10-02T21:00:00Z,30.6671,-87.9365,27.88,1111122 
DISL,ioos:station:DISL:MHPA:1,2016-10-02T21:30:00Z,30.6671,-87.9365,28.11,1111122 
DISL,ioos:station:DISL:MHPA:1,2016-10-02T22:00:00Z,30.6671,-87.9365,27.74,1111122 
DISL,ioos:station:DISL:MHPA:1,2016-10-02T22:30:00Z,30.6671,-87.9365,26.67,1111122 
DISL,ioos:station:DISL:MHPA:1,2016-10-02T23:00:00Z,30.6671,-87.9365,26.81,1111122 
DISL,ioos:station:DISL:MHPA:1,2016-10-02T23:30:00Z,30.6671,-87.9365,25.71,1111122 
DISL,ioos:station:DISL:MHPA:1,2016-10-03T00:00:00Z,30.6671,-87.9365,25.25,1111122 
DISL,ioos:station:DISL:MHPA:1,2016-10-03T00:30:00Z,30.6671,-87.9365,24.66,1111122 
DISL,ioos:station:DISL:MHPA:1,2016-10-03T01:00:00Z,30.6671,-87.9365,24.19,1111122 
DISL,ioos:station:DISL:MHPA:1,2016-10-03T01:30:00Z,30.6671,-87.9365,23.39,1111122 
DISL,ioos:station:DISL:MHPA:1,2016-10-03T02:00:00Z,30.6671,-87.9365,23.22,1111122 
DISL,ioos:station:DISL:MHPA:1,2016-10-03T02:30:00Z,30.6671,-87.9365,23.06,1111122 
DISL,ioos:station:DISL:MHPA:1,2016-10-03T03:00:00Z,30.6671,-87.9365,22.83,1111122 
DISL,ioos:station:DISL:MHPA:1,2016-10-03T03:30:00Z,30.6671,-87.9365,21.75,1111122 
DISL,ioos:station:DISL:MHPA:1,2016-10-03T04:00:00Z,30.6671,-87.9365,21.88,1111122 
DISL,ioos:station:DISL:MHPA:1,2016-10-03T04:30:00Z,30.6671,-87.9365,21.04,1111122 
DISL,ioos:station:DISL:MHPA:1,2016-10-03T05:00:00Z,30.6671,-87.9365,21.17,1111122 
DISL,ioos:station:DISL:MHPA:1,2016-10-03T05:30:00Z,30.6671,-87.9365,20.97,1111122 
DISL,ioos:station:DISL:MHPA:1,2016-10-03T06:00:00Z,30.6671,-87.9365,20.74,1111122 
DISL,ioos:station:DISL:MHPA:1,2016-10-03T06:30:00Z,30.6671,-87.9365,20.51,1111122 
DISL,ioos:station:DISL:MHPA:1,2016-10-03T07:00:00Z,30.6671,-87.9365,20.23,1111122 
DISL,ioos:station:DISL:MHPA:1,2016-10-03T07:30:00Z,30.6671,-87.9365,20.4,1111122 
DISL,ioos:station:DISL:MHPA:1,2016-10-03T08:00:00Z,30.6671,-87.9365,19.69,1111122 
DISL,ioos:station:DISL:MHPA:1,2016-10-03T08:30:00Z,30.6671,-87.9365,19.49,1111122 
DISL,ioos:station:DISL:MHPA:1,2016-10-03T09:00:00Z,30.6671,-87.9365,19.5,1111122 
DISL,ioos:station:DISL:MHPA:1,2016-10-03T09:30:00Z,30.6671,-87.9365,19.4,1111122 
DISL,ioos:station:DISL:MHPA:1,2016-10-03T10:00:00Z,30.6671,-87.9365,19.23,1111122 
DISL,ioos:station:DISL:MHPA:1,2016-10-03T10:30:00Z,30.6671,-87.9365,19.0,1111122 
DISL,ioos:station:DISL:MHPA:1,2016-10-03T11:00:00Z,30.6671,-87.9365,18.93,1111122 
DISL,ioos:station:DISL:MHPA:1,2016-10-03T11:30:00Z,30.6671,-87.9365,19.16,1111122 
DISL,ioos:station:DISL:MHPA:1,2016-10-03T12:00:00Z,30.6671,-87.9365,18.99,1111122 
DISL,ioos:station:DISL:MHPA:1,2016-10-03T12:30:00Z,30.6671,-87.9365,19.39,1111122 
DISL,ioos:station:DISL:MHPA:1,2016-10-03T13:00:00Z,30.6671,-87.9365,19.52,1111122 
DISL,ioos:station:DISL:MHPA:1,2016-10-03T13:30:00Z,30.6671,-87.9365,20.5,1111122 
DISL,ioos:station:DISL:MHPA:1,2016-10-03T14:00:00Z,30.6671,-87.9365,21.85,1111122 
DISL,ioos:station:DISL:MHPA:1,2016-10-03T14:30:00Z,30.6671,-87.9365,22.91,1111122 
DISL,ioos:station:DISL:MHPA:1,2016-10-03T15:00:00Z,30.6671,-87.9365,24.39,1111122 
DISL,ioos:station:DISL:MHPA:1,2016-10-03T15:30:00Z,30.6671,-87.9365,25.52,1111122 
DISL,ioos:station:DISL:MHPA:1,2016-10-03T16:00:00Z,30.6671,-87.9365,26.13,1111122 
DISL,ioos:station:DISL:MHPA:1,2016-10-03T16:30:00Z,30.6671,-87.9365,26.96,1111122 
DISL,ioos:station:DISL:MHPA:1,2016-10-03T17:00:00Z,30.6671,-87.9365,27.35,1111122 
DISL,ioos:station:DISL:MHPA:1,2016-10-03T17:30:00Z,30.6671,-87.9365,28.03,1111122 
DISL,ioos:station:DISL:MHPA:1,2016-10-03T18:00:00Z,30.6671,-87.9365,28.09,1111122 
DISL,ioos:station:DISL:MHPA:1,2016-10-03T18:30:00Z,30.6671,-87.9365,28.5,1111122 
DISL,ioos:station:DISL:MHPA:1,2016-10-03T19:00:00Z,30.6671,-87.9365,28.8,1111122 
DISL,ioos:station:DISL:MHPA:1,2016-10-03T19:30:00Z,30.6671,-87.9365,29.54,1111122 
DISL,ioos:station:DISL:MHPA:1,2016-10-03T20:00:00Z,30.6671,-87.9365,29.37,1111122 
DISL,ioos:station:DISL:MHPA:1,2016-10-03T20:30:00Z,30.6671,-87.9365,29.66,1111122 
DISL,ioos:station:DISL:MHPA:1,2016-10-03T21:00:00Z,30.6671,-87.9365,28.81,1111122 
DISL,ioos:station:DISL:MHPA:1,2016-10-03T21:30:00Z,30.6671,-87.9365,28.98,1111122 
DISL,ioos:station:DISL:MHPA:1,2016-10-03T22:00:00Z,30.6671,-87.9365,29.05,1111122 
DISL,ioos:station:DISL:MHPA:1,2016-10-03T22:30:00Z,30.6671,-87.9365,29.45,1111122 
DISL,ioos:station:DISL:MHPA:1,2016-10-03T23:00:00Z,30.6671,-87.9365,29.96,1111122 
DISL,ioos:station:DISL:MHPA:1,2016-10-03T23:30:00Z,30.6671,-87.9365,28.96,1111122 
DISL,ioos:station:DISL:MHPA:1,2016-10-04T00:00:00Z,30.6671,-87.9365,27.32,1111122 
DISL,ioos:station:DISL:MHPA:1,2016-10-04T00:30:00Z,30.6671,-87.9365,27.07,1111122 
DISL,ioos:station:DISL:MHPA:1,2016-10-04T01:00:00Z,30.6671,-87.9365,25.38,1111122 
DISL,ioos:station:DISL:MHPA:1,2016-10-04T01:30:00Z,30.6671,-87.9365,24.9,1111122 
DISL,ioos:station:DISL:MHPA:1,2016-10-04T02:00:00Z,30.6671,-87.9365,24.36,1111122 
DISL,ioos:station:DISL:MHPA:1,2016-10-04T02:30:00Z,30.6671,-87.9365,24.16,1111122 
DISL,ioos:station:DISL:MHPA:1,2016-10-04T03:00:00Z,30.6671,-87.9365,23.69,1111122 
DISL,ioos:station:DISL:MHPA:1,2016-10-04T03:30:00Z,30.6671,-87.9365,23.35,1111122 
DISL,ioos:station:DISL:MHPA:1,2016-10-04T04:00:00Z,30.6671,-87.9365,22.99,1111122 
DISL,ioos:station:DISL:MHPA:1,2016-10-04T04:30:00Z,30.6671,-87.9365,23.03,1111122 
DISL,ioos:station:DISL:MHPA:1,2016-10-04T05:00:00Z,30.6671,-87.9365,22.66,1111122 
DISL,ioos:station:DISL:MHPA:1,2016-10-04T05:30:00Z,30.6671,-87.9365,22.59,1111122 
DISL,ioos:station:DISL:MHPA:1,2016-10-04T06:00:00Z,30.6671,-87.9365,22.26,1111122 
DISL,ioos:station:DISL:MHPA:1,2016-10-04T06:30:00Z,30.6671,-87.9365,21.68,1111122 
DISL,ioos:station:DISL:MHPA:1,2016-10-04T07:00:00Z,30.6671,-87.9365,21.31,1111122 
DISL,ioos:station:DISL:MHPA:1,2016-10-04T07:30:00Z,30.6671,-87.9365,21.11,1111122 
DISL,ioos:station:DISL:MHPA:1,2016-10-04T08:00:00Z,30.6671,-87.9365,20.7,1111122 
DISL,ioos:station:DISL:MHPA:1,2016-10-04T08:30:00Z,30.6671,-87.9365,20.67,1111122 
DISL,ioos:station:DISL:MHPA:1,2016-10-04T09:00:00Z,30.6671,-87.9365,20.27,1111122 
DISL,ioos:station:DISL:MHPA:1,2016-10-04T09:30:00Z,30.6671,-87.9365,20.03,1111122 
DISL,ioos:station:DISL:MHPA:1,2016-10-04T10:00:00Z,30.6671,-87.9365,19.89,1111122 
DISL,ioos:station:DISL:MHPA:1,2016-10-04T10:30:00Z,30.6671,-87.9365,19.66,1111122 
DISL,ioos:station:DISL:MHPA:1,2016-10-04T11:00:00Z,30.6671,-87.9365,19.56,1111122 
DISL,ioos:station:DISL:MHPA:1,2016-10-04T11:30:00Z,30.6671,-87.9365,19.72,1111122 
DISL,ioos:station:DISL:MHPA:1,2016-10-04T12:00:00Z,30.6671,-87.9365,20.2,1111122 
DISL,ioos:station:DISL:MHPA:1,2016-10-04T12:30:00Z,30.6671,-87.9365,21.85,1111122 
DISL,ioos:station:DISL:MHPA:1,2016-10-04T13:00:00Z,30.6671,-87.9365,23.03,1111122 
DISL,ioos:station:DISL:MHPA:1,2016-10-04T13:30:00Z,30.6671,-87.9365,24.06,1111122 
DISL,ioos:station:DISL:MHPA:1,2016-10-04T14:00:00Z,30.6671,-87.9365,25.03,1111122 
DISL,ioos:station:DISL:MHPA:1,2016-10-04T14:30:00Z,30.6671,-87.9365,25.93,1111122 
DISL,ioos:station:DISL:MHPA:1,2016-10-04T15:00:00Z,30.6671,-87.9365,26.6,1111122 
DISL,ioos:station:DISL:MHPA:1,2016-10-04T15:30:00Z,30.6671,-87.9365,27.07,1111122 
DISL,ioos:station:DISL:MHPA:1,2016-10-04T16:00:00Z,30.6671,-87.9365,27.56,1111122 
DISL,ioos:station:DISL:MHPA:1,2016-10-04T16:30:00Z,30.6671,-87.9365,28.06,1111122 
DISL,ioos:station:DISL:MHPA:1,2016-10-04T17:00:00Z,30.6671,-87.9365,28.6,1111122 
DISL,ioos:station:DISL:MHPA:1,2016-10-04T17:30:00Z,30.6671,-87.9365,28.95,1111122 
DISL,ioos:station:DISL:MHPA:1,2016-10-04T18:00:00Z,30.6671,-87.9365,29.42,1111122 
DISL,ioos:station:DISL:MHPA:1,2016-10-04T18:30:00Z,30.6671,-87.9365,29.69,1111122 
DISL,ioos:station:DISL:MHPA:1,2016-10-04T19:00:00Z,30.6671,-87.9365,29.87,1111122 
DISL,ioos:station:DISL:MHPA:1,2016-10-04T19:30:00Z,30.6671,-87.9365,30.14,1111122 
DISL,ioos:station:DISL:MHPA:1,2016-10-04T20:00:00Z,30.6671,-87.9365,29.73,1111122 
DISL,ioos:station:DISL:MHPA:1,2016-10-04T20:30:00Z,30.6671,-87.9365,28.81,1111122 
DISL,ioos:station:DISL:MHPA:1,2016-10-04T21:00:00Z,30.6671,-87.9365,28.61,1111122 
DISL,ioos:station:DISL:MHPA:1,2016-10-04T21:30:00Z,30.6671,-87.9365,29.29,1111122 
DISL,ioos:station:DISL:MHPA:1,2016-10-04T22:00:00Z,30.6671,-87.9365,29.29,1111122 
DISL,ioos:station:DISL:MHPA:1,2016-10-04T22:30:00Z,30.6671,-87.9365,28.71,1111122 
DISL,ioos:station:DISL:MHPA:1,2016-10-04T23:00:00Z,30.6671,-87.9365,28.25,1111122 
DISL,ioos:station:DISL:MHPA:1,2016-10-04T23:30:00Z,30.6671,-87.9365,28.3,1111122 
DISL,ioos:station:DISL:MHPA:1,2016-10-05T00:00:00Z,30.6671,-87.9365,28.14,1111122 
DISL,ioos:station:DISL:MHPA:1,2016-10-05T00:30:00Z,30.6671,-87.9365,27.68,1111122 
DISL,ioos:station:DISL:MHPA:1,2016-10-05T01:00:00Z,30.6671,-87.9365,27.41,1111122 
DISL,ioos:station:DISL:MHPA:1,2016-10-05T01:30:00Z,30.6671,-87.9365,27.04,1111122 
DISL,ioos:station:DISL:MHPA:1,2016-10-05T02:00:00Z,30.6671,-87.9365,26.23,1111122 
DISL,ioos:station:DISL:MHPA:1,2016-10-05T02:30:00Z,30.6671,-87.9365,25.79,1111122 
DISL,ioos:station:DISL:MHPA:1,2016-10-05T03:00:00Z,30.6671,-87.9365,25.23,1111122 
DISL,ioos:station:DISL:MHPA:1,2016-10-05T03:30:00Z,30.6671,-87.9365,24.97,1111122 
DISL,ioos:station:DISL:MHPA:1,2016-10-05T04:00:00Z,30.6671,-87.9365,24.63,1111122 
DISL,ioos:station:DISL:MHPA:1,2016-10-05T04:30:00Z,30.6671,-87.9365,24.39,1111122 
DISL,ioos:station:DISL:MHPA:1,2016-10-05T05:00:00Z,30.6671,-87.9365,24.33,1111122 
DISL,ioos:station:DISL:MHPA:1,2016-10-05T05:30:00Z,30.6671,-87.9365,24.33,1111122 
DISL,ioos:station:DISL:MHPA:1,2016-10-05T06:00:00Z,30.6671,-87.9365,24.37,1111122 
DISL,ioos:station:DISL:MHPA:1,2016-10-05T06:30:00Z,30.6671,-87.9365,24.33,1111122 
DISL,ioos:station:DISL:MHPA:1,2016-10-05T07:00:00Z,30.6671,-87.9365,24.26,1111122 
DISL,ioos:station:DISL:MHPA:1,2016-10-05T07:30:00Z,30.6671,-87.9365,24.53,1111122 
DISL,ioos:station:DISL:MHPA:1,2016-10-05T08:00:00Z,30.6671,-87.9365,24.09,1111122 
DISL,ioos:station:DISL:MHPA:1,2016-10-05T08:30:00Z,30.6671,-87.9365,23.62,1111122 
DISL,ioos:station:DISL:MHPA:1,2016-10-05T09:00:00Z,30.6671,-87.9365,23.05,1111122 
DISL,ioos:station:DISL:MHPA:1,2016-10-05T09:30:00Z,30.6671,-87.9365,22.75,1111122 
DISL,ioos:station:DISL:MHPA:1,2016-10-05T10:00:00Z,30.6671,-87.9365,21.95,1111122 
DISL,ioos:station:DISL:MHPA:1,2016-10-05T10:30:00Z,30.6671,-87.9365,21.44,1111122 
DISL,ioos:station:DISL:MHPA:1,2016-10-05T11:00:00Z,30.6671,-87.9365,21.31,1111122 
DISL,ioos:station:DISL:MHPA:1,2016-10-05T11:30:00Z,30.6671,-87.9365,21.07,1111122 
DISL,ioos:station:DISL:MHPA:1,2016-10-05T12:00:00Z,30.6671,-87.9365,20.74,1111122 
DISL,ioos:station:DISL:MHPA:1,2016-10-05T12:30:00Z,30.6671,-87.9365,20.87,1111122 
DISL,ioos:station:DISL:MHPA:1,2016-10-05T13:00:00Z,30.6671,-87.9365,21.28,1111122 
DISL,ioos:station:DISL:MHPA:1,2016-10-05T13:30:00Z,30.6671,-87.9365,21.65,1111122 
DISL,ioos:station:DISL:MHPA:1,2016-10-05T14:00:00Z,30.6671,-87.9365,22.44,1111122 
DISL,ioos:station:DISL:MHPA:1,2016-10-05T14:30:00Z,30.6671,-87.9365,23.32,1111122 
DISL,ioos:station:DISL:MHPA:1,2016-10-05T15:00:00Z,30.6671,-87.9365,24.12,1111122 
DISL,ioos:station:DISL:MHPA:1,2016-10-05T15:30:00Z,30.6671,-87.9365,25.05,1111122 
DISL,ioos:station:DISL:MHPA:1,2016-10-05T16:00:00Z,30.6671,-87.9365,25.92,1111122 
DISL,ioos:station:DISL:MHPA:1,2016-10-05T16:30:00Z,30.6671,-87.9365,26.49,1111122 
DISL,ioos:station:DISL:MHPA:1,2016-10-05T17:00:00Z,30.6671,-87.9365,27.12,1111122 
DISL,ioos:station:DISL:MHPA:1,2016-10-05T17:30:00Z,30.6671,-87.9365,27.49,1111122 
DISL,ioos:station:DISL:MHPA:1,2016-10-05T18:00:00Z,30.6671,-87.9365,27.93,1111122 
DISL,ioos:station:DISL:MHPA:1,2016-10-05T18:30:00Z,30.6671,-87.9365,28.36,1111122 
DISL,ioos:station:DISL:MHPA:1,2016-10-05T19:00:00Z,30.6671,-87.9365,28.87,1111122 
DISL,ioos:station:DISL:MHPA:1,2016-10-05T19:30:00Z,30.6671,-87.9365,29.04,1111122 
DISL,ioos:station:DISL:MHPA:1,2016-10-05T20:00:00Z,30.6671,-87.9365,29.61,1111122 
DISL,ioos:station:DISL:MHPA:1,2016-10-05T20:30:00Z,30.6671,-87.9365,29.76,1111122 
DISL,ioos:station:DISL:MHPA:1,2016-10-05T21:00:00Z,30.6671,-87.9365,29.86,1111122 
DISL,ioos:station:DISL:MHPA:1,2016-10-05T21:30:00Z,30.6671,-87.9365,29.82,1111122 
DISL,ioos:station:DISL:MHPA:1,2016-10-05T22:00:00Z,30.6671,-87.9365,30.13,1111122 
DISL,ioos:station:DISL:MHPA:1,2016-10-05T22:30:00Z,30.6671,-87.9365,29.93,1111122 
DISL,ioos:station:DISL:MHPA:1,2016-10-05T23:00:00Z,30.6671,-87.9365,29.42,1111122 
DISL,ioos:station:DISL:MHPA:1,2016-10-05T23:30:00Z,30.6671,-87.9365,28.15,1111122 
DISL,ioos:station:DISL:MHPA:1,2016-10-06T00:00:00Z,30.6671,-87.9365,26.88,1111122 
DISL,ioos:station:DISL:MHPA:1,2016-10-06T00:30:00Z,30.6671,-87.9365,26.16,1111122 
DISL,ioos:station:DISL:MHPA:1,2016-10-06T01:00:00Z,30.6671,-87.9365,25.52,1111122 
DISL,ioos:station:DISL:MHPA:1,2016-10-06T01:30:00Z,30.6671,-87.9365,25.34,1111122 
DISL,ioos:station:DISL:MHPA:1,2016-10-06T02:00:00Z,30.6671,-87.9365,25.04,1111122 
DISL,ioos:station:DISL:MHPA:1,2016-10-06T02:30:00Z,30.6671,-87.9365,24.46,1111122 
DISL,ioos:station:DISL:MHPA:1,2016-10-06T03:00:00Z,30.6671,-87.9365,23.99,1111122 
DISL,ioos:station:DISL:MHPA:1,2016-10-06T03:30:00Z,30.6671,-87.9365,23.62,1111122 
DISL,ioos:station:DISL:MHPA:1,2016-10-06T04:00:00Z,30.6671,-87.9365,23.45,1111122 
DISL,ioos:station:DISL:MHPA:1,2016-10-06T04:30:00Z,30.6671,-87.9365,23.19,1111122 
DISL,ioos:station:DISL:MHPA:1,2016-10-06T05:00:00Z,30.6671,-87.9365,22.96,1111122 
DISL,ioos:station:DISL:MHPA:1,2016-10-06T05:30:00Z,30.6671,-87.9365,23.37,1111122 
DISL,ioos:station:DISL:MHPA:1,2016-10-06T06:00:00Z,30.6671,-87.9365,23.87,1111122 
DISL,ioos:station:DISL:MHPA:1,2016-10-06T06:30:00Z,30.6671,-87.9365,23.3,1111122 
DISL,ioos:station:DISL:MHPA:1,2016-10-06T07:00:00Z,30.6671,-87.9365,22.89,1111122 
DISL,ioos:station:DISL:MHPA:1,2016-10-06T07:30:00Z,30.6671,-87.9365,22.56,1111122 
DISL,ioos:station:DISL:MHPA:1,2016-10-06T08:00:00Z,30.6671,-87.9365,22.19,1111122 
DISL,ioos:station:DISL:MHPA:1,2016-10-06T08:30:00Z,30.6671,-87.9365,21.99,1111122 
DISL,ioos:station:DISL:MHPA:1,2016-10-06T09:00:00Z,30.6671,-87.9365,21.61,1111122 
DISL,ioos:station:DISL:MHPA:1,2016-10-06T09:30:00Z,30.6671,-87.9365,21.34,1111122 
DISL,ioos:station:DISL:MHPA:1,2016-10-06T10:30:00Z,30.6671,-87.9365,21.07,1111122 
DISL,ioos:station:DISL:MHPA:1,2016-10-06T11:00:00Z,30.6671,-87.9365,20.7,1111122 
DISL,ioos:station:DISL:MHPA:1,2016-10-06T11:30:00Z,30.6671,-87.9365,20.9,1111122 
DISL,ioos:station:DISL:MHPA:1,2016-10-06T12:00:00Z,30.6671,-87.9365,20.57,1111122 
DISL,ioos:station:DISL:MHPA:1,2016-10-06T12:30:00Z,30.6671,-87.9365,20.67,1111122 
DISL,ioos:station:DISL:MHPA:1,2016-10-06T13:00:00Z,30.6671,-87.9365,21.41,1111122 
DISL,ioos:station:DISL:MHPA:1,2016-10-06T13:30:00Z,30.6671,-87.9365,21.85,1111122 
DISL,ioos:station:DISL:MHPA:1,2016-10-06T14:00:00Z,30.6671,-87.9365,22.61,1111122 
DISL,ioos:station:DISL:MHPA:1,2016-10-06T14:30:00Z,30.6671,-87.9365,23.08,1111122 
DISL,ioos:station:DISL:MHPA:1,2016-10-06T15:00:00Z,30.6671,-87.9365,24.28,1111122 
DISL,ioos:station:DISL:MHPA:1,2016-10-06T15:30:00Z,30.6671,-87.9365,24.54,1111122 
DISL,ioos:station:DISL:MHPA:1,2016-10-06T16:00:00Z,30.6671,-87.9365,25.22,1111122 
DISL,ioos:station:DISL:MHPA:1,2016-10-06T16:30:00Z,30.6671,-87.9365,25.61,1111122 
DISL,ioos:station:DISL:MHPA:1,2016-10-06T17:00:00Z,30.6671,-87.9365,26.04,1111122 
DISL,ioos:station:DISL:MHPA:1,2016-10-06T17:30:00Z,30.6671,-87.9365,26.41,1111122 
DISL,ioos:station:DISL:MHPA:1,2016-10-06T18:00:00Z,30.6671,-87.9365,27.55,1111122 
DISL,ioos:station:DISL:MHPA:1,2016-10-06T18:30:00Z,30.6671,-87.9365,28.09,1111122 
DISL,ioos:station:DISL:MHPA:1,2016-10-06T19:00:00Z,30.6671,-87.9365,28.09,1111122 
DISL,ioos:station:DISL:MHPA:1,2016-10-06T19:30:00Z,30.6671,-87.9365,28.57,1111122 
DISL,ioos:station:DISL:MHPA:1,2016-10-06T20:00:00Z,30.6671,-87.9365,28.67,1111122 
DISL,ioos:station:DISL:MHPA:1,2016-10-06T20:30:00Z,30.6671,-87.9365,29.04,1111122 
DISL,ioos:station:DISL:MHPA:1,2016-10-06T21:00:00Z,30.6671,-87.9365,29.26,1111122 
DISL,ioos:station:DISL:MHPA:1,2016-10-06T22:00:00Z,30.6671,-87.9365,28.77,1111122 
DISL,ioos:station:DISL:MHPA:1,2016-10-06T22:30:00Z,30.6671,-87.9365,28.67,1111122 
DISL,ioos:station:DISL:MHPA:1,2016-10-06T23:00:00Z,30.6671,-87.9365,28.34,1111122 
DISL,ioos:station:DISL:MHPA:1,2016-10-06T23:30:00Z,30.6671,-87.9365,28.0,1111122 
DISL,ioos:station:DISL:MHPA:1,2016-10-07T00:00:00Z,30.6671,-87.9365,27.54,1111122 
DISL,ioos:station:DISL:MHPA:1,2016-10-07T00:30:00Z,30.6671,-87.9365,27.17,1111122 